When you browse on this site, cookies collect data to enhance your experience and personalize the content and advertising you see.
Visit our Privacy Policy to learn more. By continuing to use the site, you agree to this use of cookies and data.
  • In Romania
  • List of Countries
  • For 7 days
  • Water Temperature
  • Weather Map
  • Weather Widgets
  • user-avatar
    Login

    Hourly Weather Ischgl

    Today, 25 August, Sunday

    Time Temperature Precipitation Wind Pressure Humidity
    00:00 +8°C° 0 mm 1 mps 578 mmHg 87%
    01:00 +7°C° 0 mm 1 mps 578 mmHg 87%
    02:00 +7°C° 0 mm 1 mps 578 mmHg 87%
    03:00 +7°C° 0 mm 1 mps 578 mmHg 87%
    04:00 +5°C° 0 mm 0 mps 577 mmHg 88%
    05:00 +7°C° 0 mm 0 mps 578 mmHg 85%
    06:00 +8°C° 0 mm 0 mps 579 mmHg 82%
    07:00 +10°C° 0 mm 0 mps 580 mmHg 79%
    08:00 +11°C° 0.2 mm 0 mps 580 mmHg 73%
    09:00 +14°C° 0.2 mm 1 mps 581 mmHg 68%
    10:00 +15°C° 0.2 mm 1 mps 582 mmHg 62%
    11:00 +15°C° 1.3 mm 1 mps 582 mmHg 63%
    12:00 +16°C° 1.3 mm 1 mps 582 mmHg 63%
    13:00 +16°C° 1.3 mm 1 mps 582 mmHg 64%
    14:00 +15°C° 2 mm 2 mps 581 mmHg 67%
    15:00 +15°C° 2 mm 2 mps 581 mmHg 71%
    16:00 +14°C° 2 mm 2 mps 581 mmHg 74%
    17:00 +13°C° 1.2 mm 1 mps 580 mmHg 80%
    18:00 +11°C° 1.2 mm 1 mps 579 mmHg 85%
    19:00 +10°C° 1.2 mm 1 mps 579 mmHg 91%
    20:00 +9°C° 0.1 mm 1 mps 579 mmHg 91%
    21:00 +7°C° 0.1 mm 0 mps 578 mmHg 92%
    22:00 +6°C° 0.1 mm 0 mps 578 mmHg 93%
    23:00 +6°C° 0 mm 0 mps 578 mmHg 93%

    Tomorrow, 26 August, Monday

    Time Temperature Precipitation Wind Pressure Humidity
    00:00 +6°C° 0 mm 0 mps 578 mmHg 93%
    01:00 +5°C° 0 mm 0 mps 577 mmHg 92%
    02:00 +5°C° 0 mm 0 mps 577 mmHg 92%
    03:00 +6°C° 0 mm 1 mps 577 mmHg 91%
    04:00 +6°C° 0 mm 1 mps 577 mmHg 91%
    05:00 +7°C° 0 mm 1 mps 578 mmHg 88%
    06:00 +9°C° 0 mm 1 mps 578 mmHg 85%
    07:00 +10°C° 0 mm 1 mps 579 mmHg 83%
    08:00 +12°C° 0 mm 1 mps 580 mmHg 75%
    09:00 +14°C° 0 mm 1 mps 581 mmHg 68%
    10:00 +15°C° 0 mm 1 mps 582 mmHg 60%
    11:00 +16°C° 0.2 mm 1 mps 582 mmHg 56%
    12:00 +18°C° 0.2 mm 1 mps 582 mmHg 53%
    13:00 +19°C° 0.2 mm 1 mps 582 mmHg 49%
    14:00 +18°C° 0.6 mm 1 mps 582 mmHg 54%
    15:00 +18°C° 0.6 mm 1 mps 581 mmHg 59%
    16:00 +16°C° 0.6 mm 1 mps 581 mmHg 63%
    17:00 +14°C° 0.8 mm 1 mps 580 mmHg 72%
    18:00 +12°C° 0.8 mm 1 mps 579 mmHg 80%
    19:00 +11°C° 0.8 mm 1 mps 578 mmHg 88%
    20:00 +9°C° 0.3 mm 0 mps 578 mmHg 89%
    21:00 +8°C° 0.3 mm 0 mps 578 mmHg 90%
    22:00 +7°C° 0.3 mm 0 mps 578 mmHg 90%
    23:00 +7°C° 0 mm 0 mps 578 mmHg 90%

    Day after tomorrow, 27 August, Tuesday

    Time Temperature Precipitation Wind Pressure Humidity
    00:00 +8°C° 0 mm 1 mps 578 mmHg 90%
    01:00 +7°C° 0 mm 1 mps 577 mmHg 90%
    02:00 +7°C° 0 mm 1 mps 577 mmHg 90%
    03:00 +6°C° 0 mm 0 mps 577 mmHg 90%
    04:00 +6°C° 0 mm 0 mps 577 mmHg 90%
    05:00 +7°C° 0 mm 0 mps 578 mmHg 87%
    06:00 +9°C° 0 mm 0 mps 579 mmHg 85%
    07:00 +11°C° 0 mm 1 mps 579 mmHg 83%
    08:00 +12°C° 0 mm 0 mps 580 mmHg 73%
    09:00 +14°C° 0 mm 0 mps 581 mmHg 64%
    10:00 +15°C° 0 mm 0 mps 582 mmHg 55%
    11:00 +18°C° 0 mm 1 mps 582 mmHg 52%
    12:00 +19°C° 0 mm 1 mps 583 mmHg 49%
    13:00 +20°C° 0 mm 1 mps 583 mmHg 46%
    14:00 +19°C° 0.3 mm 1 mps 582 mmHg 49%
    15:00 +19°C° 0.3 mm 1 mps 582 mmHg 52%
    16:00 +18°C° 0.3 mm 1 mps 581 mmHg 56%
    17:00 +15°C° 0.4 mm 1 mps 580 mmHg 66%
    18:00 +13°C° 0.4 mm 1 mps 580 mmHg 75%
    19:00 +10°C° 0.4 mm 0 mps 579 mmHg 85%
    20:00 +9°C° 0 mm 0 mps 578 mmHg 86%
    21:00 +10°C° 0 mm 1 mps 578 mmHg 88%
    22:00 +9°C° 0 mm 1 mps 578 mmHg 89%
    23:00 +9°C° 0 mm 1 mps 578 mmHg 89%

    28 August, Wednesday

    Time Temperature Precipitation Wind Pressure Humidity
    00:00 +9°C° 0 mm 1 mps 578 mmHg 89%
    01:00 +9°C° 0 mm 1 mps 578 mmHg 89%
    02:00 +9°C° 0 mm 1 mps 577 mmHg 89%
    03:00 +8°C° 0 mm 1 mps 577 mmHg 90%
    04:00 +8°C° 0 mm 1 mps 577 mmHg 90%
    05:00 +9°C° 0 mm 1 mps 577 mmHg 88%
    06:00 +10°C° 0 mm 1 mps 578 mmHg 87%
    07:00 +10°C° 0 mm 2 mps 578 mmHg 85%
    08:00 +12°C° 0 mm 1 mps 579 mmHg 78%
    09:00 +14°C° 0 mm 1 mps 580 mmHg 70%
    10:00 +15°C° 0 mm 1 mps 580 mmHg 62%
    11:00 +16°C° 0.3 mm 1 mps 580 mmHg 60%
    12:00 +18°C° 0.3 mm 1 mps 580 mmHg 57%
    13:00 +18°C° 0.3 mm 1 mps 580 mmHg 54%
    14:00 +16°C° 1 mm 1 mps 580 mmHg 60%
    15:00 +16°C° 1 mm 1 mps 579 mmHg 65%
    16:00 +15°C° 1 mm 1 mps 579 mmHg 70%
    17:00 +14°C° 1.1 mm 1 mps 578 mmHg 75%
    18:00 +13°C° 1.1 mm 1 mps 578 mmHg 80%
    19:00 +11°C° 1.1 mm 0 mps 577 mmHg 85%
    20:00 +10°C° 0.3 mm 0 mps 577 mmHg 86%
    21:00 +11°C° 0.3 mm 1 mps 577 mmHg 86%
    22:00 +10°C° 0.3 mm 1 mps 577 mmHg 87%
    23:00 +9°C° 0 mm 1 mps 577 mmHg 87%

    29 August, Thursday

    Time Temperature Precipitation Wind Pressure Humidity
    00:00 +9°C° 0 mm 1 mps 576 mmHg 88%
    01:00 +8°C° 0 mm 1 mps 576 mmHg 88%
    02:00 +8°C° 0.1 mm 1 mps 576 mmHg 88%
    03:00 +8°C° 0.1 mm 1 mps 576 mmHg 88%
    04:00 +8°C° 0.1 mm 1 mps 576 mmHg 88%
    05:00 +9°C° 0.1 mm 1 mps 576 mmHg 86%
    06:00 +10°C° 0.1 mm 1 mps 577 mmHg 84%
    07:00 +10°C° 0.1 mm 0 mps 578 mmHg 82%
    08:00 +12°C° 0.5 mm 1 mps 578 mmHg 79%
    09:00 +13°C° 0.5 mm 1 mps 579 mmHg 76%
    10:00 +14°C° 0.5 mm 1 mps 579 mmHg 73%
    11:00 +14°C° 1.3 mm 1 mps 579 mmHg 73%
    12:00 +14°C° 1.3 mm 2 mps 579 mmHg 73%
    13:00 +14°C° 1.3 mm 2 mps 579 mmHg 73%
    14:00 +14°C° 1.5 mm 2 mps 579 mmHg 76%
    15:00 +13°C° 1.5 mm 2 mps 579 mmHg 79%
    16:00 +13°C° 1.5 mm 2 mps 579 mmHg 82%
    17:00 +12°C° 1 mm 2 mps 578 mmHg 87%
    18:00 +10°C° 1 mm 2 mps 578 mmHg 91%
    19:00 +10°C° 1 mm 1 mps 578 mmHg 95%
    20:00 +10°C° 0.8 mm 1 mps 578 mmHg 95%
    21:00 +10°C° 0.8 mm 1 mps 578 mmHg 95%
    22:00 +8°C° 0.8 mm 0 mps 579 mmHg 95%
    23:00 +8°C° 0.2 mm 0 mps 578 mmHg 95%

    30 August, Friday

    Time Temperature Precipitation Wind Pressure Humidity
    00:00 +8°C° 0.2 mm 0 mps 578 mmHg 95%
    01:00 +8°C° 0.2 mm 0 mps 578 mmHg 94%
    02:00 +7°C° 0 mm 0 mps 578 mmHg 95%
    03:00 +7°C° 0 mm 0 mps 578 mmHg 95%
    04:00 +6°C° 0 mm 0 mps 577 mmHg 96%
    05:00 +7°C° 0 mm 0 mps 578 mmHg 95%
    06:00 +7°C° 0 mm 0 mps 578 mmHg 94%
    07:00 +8°C° 0 mm 0 mps 578 mmHg 93%
    08:00 +9°C° 0 mm 0 mps 579 mmHg 88%
    09:00 +11°C° 0 mm 1 mps 580 mmHg 83%
    10:00 +13°C° 0 mm 1 mps 580 mmHg 77%
    11:00 +13°C° 0.6 mm 1 mps 580 mmHg 76%
    12:00 +14°C° 0.6 mm 1 mps 581 mmHg 74%
    13:00 +15°C° 0.6 mm 1 mps 581 mmHg 72%
    14:00 +14°C° 1.6 mm 1 mps 580 mmHg 75%
    15:00 +14°C° 1.6 mm 1 mps 580 mmHg 78%
    16:00 +14°C° 1.6 mm 1 mps 580 mmHg 81%
    17:00 +12°C° 1.5 mm 1 mps 579 mmHg 86%
    18:00 +11°C° 1.5 mm 1 mps 579 mmHg 90%
    19:00 +10°C° 1.5 mm 1 mps 578 mmHg 95%
    20:00 +10°C° 0.7 mm 1 mps 578 mmHg 94%
    21:00 +9°C° 0.7 mm 1 mps 578 mmHg 94%
    22:00 +9°C° 0.7 mm 1 mps 578 mmHg 93%
    23:00 +9°C° 0.1 mm 1 mps 578 mmHg 92%
    Show more